www.pogodaiklimat.ru

Погода и климат >> Архив погоды >> Россия >> Якутия >> Себян-Кюель


ПОГОДА в Себян-Кюеле

  • Прогноз погоды в Себян-Кюеле
  • Монитор погоды в Себян-Кюеле
  • Климат города

АРХИВ ПОГОДЫ в Себян-Кюеле

Время (UTC), дата Ветер
(напр.,м/с)
 
Видим.   Явления Облачность Т
(С)
Тd
(С)
f
(%)
Тe
(С)
Тes
(С)
Комфортность P
(гПа)
Po
(гПа)
Тmin
(С)
Tmax
(С)
R
(мм)
R24
(мм)
S
(см)
15 14.06 штиль 0 50 км {дождь} 8/0 2000 м
[Ac As Ci fib]
+7.9 +6.5 91 +7 +7 1016.2 925.3
18 14.06 штиль 0 50 км {дождь} 6/0 2000 м
[Ac As Ci fib]
+2.8 +2.3 97 +2 +2 1018.5 925.9
21 14.06 штиль 0 50 км 6/0 2000 м
[Ac As Ci fib]
+7.1 +3.8 80 +6 +9 1017.6 926.4
00 15.06 штиль 0 50 км 9/6 600 м
[Cu hum Ci fib]
+18.8 +6.4 44 +19 +23 1011.4 924.2 +2.0 0.0
03 15.06 Ю 2 50 км 8/8 1000 м
[Sc]
+20.0 +6.5 41 +21 +24 комфорт 1009.5 922.8
06 15.06 СВ 2 50 км 8/8 1000 м
[Sc]
+20.0 +3.2 33 +21 +23 комфорт 1006.9 920.4
09 15.06 В 2 50 км в посл. час ливневой дождь 8/8 600 м
[Cb cap]
+19.4 +2.9 33 +20 +21 1005.9 919.3
12 15.06 В 2 50 км в посл. час ливневой дождь 10/8 600 м
[Cb cap]
+15.6 +7.6 59 +16 +16 1008.6 920.7 +22.0 0.6
15 15.06 В 1 50 км в посл. час ливневой дождь 10/4 600 м
[Cb cap Ac trans Ci fib]
+10.6 +9.4 92 +10 +10 1009.9 920.4
18 15.06 штиль 0 50 км {ливн. осадки} 10/4 600 м
[Sc Ac trans Ci fib]
+7.8 +7.0 95 +7 +7 1010.4 920.0
21 15.06 ЮЗ 1 50 км 6/4 600 м
[Sc Ci fib]
+10.0 +7.6 85 +10 +11 1008.8 919.2
00 16.06 ЮЗ 1 50 км 5/5 600 м
[Sc]
+17.6 +7.3 51 +19 +23 1004.1 917.1 +7.6 0.8
03 16.06 В 1 50 км 5/5 1000 м
[Cu hum]
+18.8 +7.1 46 +20 +28 998.5 912.4
06 16.06 СВ 4 50 км 8/8 1000 м
[Cu hum]
+16.0 +6.1 52 +15 +17 998.0 911.1
09 16.06 С 2 50 км {ливн. осадки} 10/10 900 м
[Cu hum]
+7.4 +5.0 85 +5 +5 1004.7 914.8
12 16.06 СВ 3 50 км {ливн. осадки} 10/10 1000 м
[Cu hum]
+1.6 +1.3 98 -3 -3 1009.8 917.6 +19.0 1.4
15 16.06 штиль 0 4000 м слабый снег 10/10 1000 м
[Cb cap]
+0.1 -0.2 98 -1 -1 1010.3 917.5
18 16.06 штиль 0 4000 м слабый снег 10/10 1000 м
[Cb cap]
-1.8 -2.1 98 -3 -3 1010.5 917.1
21 16.06 штиль 0 4000 м слабый снег 10/10 1000 м
[Cb cap]
+3.8 +3.3 97 +3 +3 1008.2 916.8
00 17.06 штиль 0 50 км {снег} 10/10 1000 м
[Cb cap]
+4.2 +3.5 95 +3 +3 1006.4 915.3 -2.0 0.7
03 17.06 В 2 4000 м туман местами 10/10 1000 м
[Cb cap]
+2.2 0.0 85 -1 -1 1007.5 915.7
06 17.06 В 2 4000 м туман местами 10/10 840 м
[Cb cap]
+4.0 +2.8 92 +1 +1 1006.9 915.7
09 17.06 штиль 0 50 км в посл. час снег {ливн. осадки} 10/10 800 м
[Cb cap]
+1.0 +1.0 100 -0 -0 1008.8 916.5
12 17.06 штиль 0 2000 м {ливн. осадки} 10/10 210 м
[Cu med, cong]
+2.1 +2.1 100 +1 +1 1008.8 916.8 +4.2 0.8
15 17.06 штиль 0 500 м 10/10 120 м
[Cu med, cong]
+1.0 +2.0 100 -0 -0 1008.9 916.6
18 17.06 штиль 0 500 м 10/10 120 м
[Cu med, cong]
-0.8 -0.8 100 -2 -2 1009.9 916.9
21 17.06 штиль 0 500 м 10/10 150 м
[Cu med, cong]
+0.9 +0.9 100 -1 -1 1009.9 917.5
00 18.06 штиль 0 500 м слабый снег 10/10 330 м
[Cu med, cong]
+1.6 +0.5 92 0 0 1007.8 915.8 -1.0 2
03 18.06 штиль 0 500 м снег 10/10 180 м
[St]
+2.2 +1.2 93 +1 +1 1008.2 916.3
06 18.06 штиль 0 50 км {снег} 10/10 600 м
[St]
+6.2 +3.3 82 +5 +5 1007.7 917.1
09 18.06 штиль 0 50 км {снег} 10/10 600 м
[St]
+7.6 +2.9 72 +7 +7 1008.6 918.3
12 18.06 штиль 0 50 км 10/0 2000 м
[Ac As]
+8.0 +5.3 83 +7 +7 1009.0 918.9 +8.8 4
15 18.06 штиль 0 50 км 10/0 2000 м
[Ac trans]
+5.0 +4.1 94 +4 +4 1010.6 919.4
18 18.06 штиль 0 50 км 8/0 2000 м
[Ac trans]
+3.2 +2.4 94 +2 +2 1012.2 920.2
21 18.06 штиль 0 50 км 8/0 2000 м
[Ac trans]
+4.2 +3.2 93 +3 +5 1012.2 920.6
00 19.06 штиль 0 50 км 8/6 1000 м
[Sc Ac trans]
+11.4 +6.1 70 +11 +14 1009.6 920.6 +3.2
03 19.06 штиль 0 50 км 10/10 1050 м
[Sc]
+11.8 +6.8 71 +11 +11 1009.9 921.0
06 19.06 штиль 0 50 км 8/5 1000 м
[Cb cap Ac trans]
+15.2 +6.1 55 +15 +19 1007.3 919.6
09 19.06 штиль 0 50 км 8/4 1000 м
[Cb cap Ac trans]
+16.6 +3.6 42 +17 +18 1006.4 919.1
12 19.06 штиль 0 50 км 4/0 2000 м
[Ac trans]
+17.4 +5.8 46 +17 +18 1005.5 918.6 +18.0
15 19.06 штиль 0 50 км 4/0
[Ac trans]
+8.8 +5.3 79 +8 +8 1008.4 918.7
18 19.06 штиль 0 50 км ясно +2.3 +1.5 94 +1 +1 1011.0 919.0
21 19.06 штиль 0 50 км ясно +8.4 +4.5 76 +8 +11 1009.3 919.4
00 20.06 СВ 2 50 км 8/0
[Ac trans Cs]
+15.2 +6.5 56 +15 +21 1005.1 917.4 +2.0
03 20.06 штиль 0 50 км {ливн. осадки} 9/3 1000 м
[Cb cap Cs]
+15.5 +7.0 57 +15 +25 1004.7 917.1
06 20.06 В 1 50 км {ливн. осадки} 10/0 2000 м
[Ac As Cs]
+16.4 +3.6 42 +17 +25 1003.2 916.0
09 20.06 В 3 50 км 8/0 2000 м
[Ac As Cs]
+20.0 +1.7 30 +21 +22 комфорт 1000.7 914.8
12 20.06 В 3 50 км 10/0 2000 м
[Ac As Cs]
+13.5 +10.0 79 +12 +12 1004.4 916.2 +20.0 0.7
15 20.06 штиль 0 50 км {дождь} 10/0 2000 м
[Ac As]
+9.8 +6.1 78 +9 +9 1006.2 916.9
18 20.06 штиль 0 50 км {дождь} 10/0 2000 м
[Ac As]
+3.4 +2.4 93 +2 +2 1009.0 917.4
21 20.06 Ю 1 50 км 8/0 2000 м
[Ac As]
+6.9 +3.1 77 +6 +7 1008.3 917.9
00 21.06 штиль 0 50 км 10/0 2000 м
[Ac As Ci fib]
+12.2 +8.1 76 +12 +17 1006.5 917.8 +2.8 3
03 21.06 СВ 1 50 км 8/5 600 м
[Cu hum Ci fib]
+18.2 +6.5 46 +19 +26 1003.9 917.1
06 21.06 В 2 50 км 8/5 600 м
[Cu hum Ci fib]
+20.0 +3.0 32 +21 +25 комфорт 1001.5 915.5
09 21.06 В 3 50 км 8/6 600 м
[Sc diur, vesp Ci fib]
+21.2 +3.4 31 +21 +22 комфорт 1000.7 915.0
12 21.06 В 2 50 км 8/8 600 м
[Sc diur, vesp]
+15.2 +6.8 57 +15 +15 1005.4 917.7 +21.2

 

Местоположение метеостанции Себян-Кюель (Якутия, Россия): широта 65.30 долгота 130.00 высота над уровнем моря 777 м.

В архиве по умолчанию представлена погода в Себян-Кюеле за последнюю неделю. Архивные данные за месяц целиком и за предыдущие месяцы, начиная с января 2011 года, Вы можете получить, выбрав интересующий диапазон дат из раскрывающегося списка и нажав кнопку "Ввод!".


*Определитесь, кто Вы:
робот инопланетянин человек

Внимание! Время в таблицах - всемирное. Для получения местного времени необходимо прибавить поправку, которая в Себян-Кюеле равна 9 ч.

Смотрите также архив погоды в соседних городах и на ближайших метеорологических станциях:

Погода в Сеген-Кюели (Якутия, Россия) (145 км)
Погода в Екюччю (Якутия, Россия) (179 км)
Погода в Сангаре (Якутия, Россия) (195 км)
Погода в Батамае (Якутия, Россия) (200 км)
Погода в Сого-Хае (Якутия, Россия) (205 км)
Погода в Верхоянском Перевозе (Якутия, Россия) (240 км)
Погода в Иэме (Якутия, Россия) (269 км)
Погода в Бестяхской Звероферме (Якутия, Россия) (274 км)
Погода в Батагай-Алыте (Якутия, Россия) (276 км)
Погода в Намцах (Якутия, Россия) (288 км)

Пояснения к столбцам:

Ветер - указаны скорость ветра в м/с - средняя за 10 мин, порывы в срок и между сроками (в фигурных скобках) и направление, откуда дует ветер: С - северный, СВ - северо-восточный, В - восточный, ЮВ - юго-восточный, Ю - южный, ЮЗ - юго-западный, З - западный, СЗ - северо-западный.
Видимость - горизонтальная дальность видимости в метрах или километрах. При видимости от 1 до 10 км при отсутствии осадков обычно наблюдается дымка, при ухудшении видимости до 1 км и менее - туман. В сухую погоду видимость может ухудшаться дымом, пылью или мглою.
Явления - указаны атмосферные явления, наблюдавшиеся в срок или в последний час перед сроком; фигурными скобками обозначены явления, наблюдавшиеся между сроками (за 1-3 часа до срока); квадратными скобками обозначены град или гололедные отложения с указанием их диаметра в мм.
Облачность - указаны через наклонную черту общая и нижняя облачность в баллах и высота нижней границы облаков в метрах; квадратными скобками обозначены формы облаков: Ci - перистые, Cs - перисто-слоистые, Cc - перисто-кучевые, Ac - высококучевые, As - высокослоистые, Sc - слоисто-кучевые, Ns - слоисто-дождевые, Cu - кучевые, Cb - кучево-дождевые. Подробнее классификацию облаков см. в Атласе облаков (PDF).
T - Температура воздуха - температура, измеренная на высоте 2 м над землей.
Td - Температура точки росы - температура, при понижении до которой содержащийся в воздухе водяной пар достигнет насыщения.
f - Относительная влажность воздуха - влажноcть воздуха, измеренная на высоте 2 м над землей.
Te - Эффективная температура - температура, которую ощущает одетый по сезону человек в тени. Характеристика душности погоды. При расчете учитывается влияние влажности воздуха и скорости ветра на теплоощущения человека.
Tes - Эффективная температура на солнце - температура, которую ощущает человек, с поправкой на солнечный нагрев. Характеристика знойности погоды. Зависит от высоты солнца над горизонтом, облачности и скорости ветра. Ночью, в пасмурную погоду, а также при ветре 12 м/с и более поправка равна нулю.
P - Атмосферное давление - приведенное к уровню моря атмосферное давление.
Po - Атмосферное давление - измеренное на уровне метеостанции атмосферное давление.
Tmin - Минимальная температура - минимум температуры воздуха на высоте 2 м над землей.
Tmax - Максимальная температура - максимум температуры воздуха на высоте 2 м над землей.
R - Количество осадков - Количество выпавших осадков за период времени, мм. При наведении курсора мыши на число - период времени, за который выпало указанное количество осадков.
R24 - Количество осадков - Количество выпавших осадков за 24 часа, мм.
S - Снежный покров - Высота снежного покрова, см. При наведении курсора мыши на число - состояние снежного покрова и степень покрытия местности в баллах.